Погода в Ике

Погода в Ике : погода сейчас, прогноз погоды и архив. Всё, что Вы хотите узнать о погоде в Ике!

Хотите узнать прогноз погоды в Ике? Тогда Вам сюда: Погода в Ике

Поиск расширенной информации на нашем сайте:

Другие новости

Новости СМИ2

Главная страница сайта

Новости сайта

03.07.2017

Напоминаем, что на нашем специализированном сайте Метеоцентр.Азия вы можете получить высокодетализированные автоматические прогнозы погоды по пунктам России, СНГ и мира в авиационном формате (включающие направление и скорость ветра, видимость, явления погоды, количество и форму облачности, нижнюю и верхнюю границу облачности).


Погода в Ике - сегодня

Время (UTC), дата Ветер
(°,м/с) 
Видим.   Явления Облачность Т
(°С)
Тd
(°С)
f(%) Тe
(°С)
Pmin
(гПа)
dP
(гПа)
Po
(мм)
O2
(г/м3)
Тmin Tmax R s Состояние
почвы
09 20.04.18 270 (З) 20000 м    3/3 600 м 
[Cu hum]
+2.5 -9.6 40 +2  1019.7  -0.8  732  293           
15 20.04.18 250 (З) 10 км    1/0 600 м верхняя 
[Ci fib]
-6.5 -9.3 80 -6  1022.6  1.2  718  297           
18 20.04.18 260 (З) 10 км    3/0 верхняя 
[Ci fib]
-7.8 -10.5 81 -8  1023.3  0.3  734  305           
21 20.04.18 тихо ()   10 км    3/0 верхняя 
[Ci fib]
-10.4 -11 95 -10  1024.3  0.7  734  309           
03 21.04.18 250 (З) 20000 м    6/0 верхняя 
[Ci fib]
+5.2 -6.6 42 +4  1020.5  -1.3  733  291           
06 21.04.18 200 (Ю) 20000 м    9/0 верхняя 
[Ci fib]
+7.3 -5.6 39 +5  1018.7  -1.4  732  288           
09 21.04.18 230 (ЮЗ) 20000 м    10/0 верхняя 
[Cs]
+8.8 -6.9 32 +7  1016.8  -1.6  731  286           
15 21.04.18 200 (Ю) 10 км    10/0 средняя 
[Ac As]
+5.5 -6.9 40 +6  1017  731  289           
18 21.04.18 230 (ЮЗ) 20000 м    10/0 средняя 
[Ac As]
+4.9 -6.2 44 +6  1016  -0.2  731  290           
21 21.04.18 180 (Ю) 10 км    10/3 600 м кучево-дожд., средняя 
[Cb cap|Ac As]
+5.1 -4.2 51 +6  1016.3  -0.5  730  289           
03 22.04.18 200 (Ю) 20000 м    6/3 600 м средняя, верхняя 
[Cu med, cong|Ac trans|Ci fib]
+10.9 -0.9 44 +10  1015.3  -0.9  730  283           
06 22.04.18 230 (ЮЗ) 20000 м    10/4 600 м кучево-дожд., верхняя 
[Cb cap|Cs]
+13.3 +1.5 45 +13  1013.4  -1.5  729  280           
09 22.04.18 230 (ЮЗ) 20000 м    10/10 600 м кучево-дожд. 
[Cb cap]
+12.4 +0.7 45 +11  1013.1  -0.5  729  281           
15 22.04.18 тихо ()   10 км    ясно 
-0.2 -1.7 90 -0  1012.7  -1.1  727  293           
18 22.04.18 230 (ЮЗ) 10 км    6/0 средняя, верхняя 
[Ac lent|Ci fib]
-0.9 -2.1 92 1009.7  -2.8  725  293           
21 22.04.18 180 (Ю) 10 км    10/0 кучево-дожд. 
[Cb cap]
+8.1 -3.1 45 +6  1004.8  -3.4  722  283           
15 23.04.18 320 (СЗ) 10 км    1/0 верхняя 
[Ci fib]
-2.5 -9.3 60 -2  1019.4  2.1  731  298           
18 23.04.18 320 (СЗ) 10 км    3/0 средняя, верхняя 
[Ac lent|Ci fib]
-5.9 -8.2 84 -6  1020.6  0.5  732  302           
21 23.04.18 тихо ()   10 км    9/3 600 м средняя 
[Sc|Ac trans]
-6.6 -8.2 88 -7  1020.7  0.1  732  303           
03 24.04.18 020 (С) 20000 м    10/0 средняя 
[As trans]
+0.1 -10.7 44 -2  1017.7  -1.3  731  295           
06 24.04.18 050 (СВ) 20000 м    10/0 средняя, верхняя 
[Ac lent|Cs]
+2.9 -9.1 41 +2  1015.6  -1.7  730  292           
09 24.04.18 050 (СВ) 20000 м    8/3 600 м средняя, верхняя 
[Sc|Ac trans|Ci fib]
+4.1 -9 38 +3  1015.8  0.2  730  290           
15 24.04.18 тихо ()   10 км    3/0 средняя 
[Ac trans]
-4.1 -8.1 74 -4  1020.8  0.2  732  300           
18 24.04.18 тихо ()   10 км    4/0 верхняя 
[Ci fib]
-8.2 -9.6 90 -8  1023.4  1.8  734  306           
21 24.04.18 тихо ()   10 км    1/0 верхняя 
[Ci fib]
-9.5 -10.3 94 -10  1025.4  1.7  735  308           
Время (UTC), дата Ветер
(°,м/с) 
Видим.   Явления Облачность Т
(°С)
Тd
(°С)
f(%) Тe
(°С)
Pmin
(гПа)
dP
(гПа)
Po
(мм)
O2
(г/м3)
Тmin Tmax R s Состояние
почвы

Для получения пояснительной информации подведите курсор к названию столбца.

ПОГОДА в Ике - архив

Всё, что Вы хотите узнать о погоде в Ике - удобно и подробно!

Выберите нужную дату (начиная с 1 января 2015* года) и нажмите кнопку "Найти".
Будут отображены архивные сводки погоды по пункту Ика, начиная с указанной даты.


Отображать данные в формате CSV (для использования в таблицах Excel)


Внимание! Наш архив погоды предназначен исключительно для личного некоммерческого использования в познавательных целях. Если Вам необходимы официальные справки о состоянии погоды (для производственных, юридических, коммерческих и т.п. целей), обращайтесь в органы Росгидромета.

*Примечание: данная дата относится к архиву по метеостанциям СССР (Россия, СНГ, Балтия).
Архив по метеостанциям Зарубежной Европы и Азии (кроме Китая) хранится 10 дней, по другим регионам земного шара (Китай, Африка, Америка, Австралия, Океания) - 1 день.

Ика - район местоположения метеостанции


Название, широта, долгота, высота метеостанции:
Ика 59.3°ш. 106.2°д. 352 м над ур. моря [Российская Федерация]

Дополнительная информация

В oтличие oт бoльшинства пoгoдных сайтoв мы публикуем пoдрoбную метеoинфoрмацию в детальнoм прoфессиoнальнoм фoрмате.

Характеристики температуры и влажнoсти вoздуха измеряются на высoте 2 м в тени вдали oт зданий и деревьев.
Скoрoсть ветра измеряется на высoте 10 м (на урoвне рoста челoвека скoрoсть ветра ниже в 1.5-2 раза). Если метеoстанция нахoдится в гoрoде или в лесу, тo скoрoсть ветра занижена на 2-4 м/с пo сравнению с oткрытым местoм. Скoрoсть ветра над акватoриями крупных рек и oзёр, а также на вершинах хoлмoв на 2-5 м/с выше, чем в oбычных услoвиях.
Атмoсфернoе давление в разных тoчках местнoсти мoжет значительнo oтличаться oт давления на метеoстанции, в зависимoсти oт услoвий рельефа (при пoдъёме на 10 м давление пoнижается примернo на 1 мм рт.ст.).